Location: Cicognara
(44.9500°N, 10.4667°E)
Time: 02:04:10
(UTC+00:00)

Meteor 1-24 Rocket - Pass Details

Date: 20 June 2021
Orbit: 791 x 926 km, 81.2° (Epoch: 26 July)

Event Time Altitude Azimuth Distance (km) Brightness Sun altitude
Exits shadow 20:51:32 19° 162° (SSE) 1,846 4.9 -13.7°
Maximum altitude 20:55:13 50° 94° (E) 1,030 3.9 -14.1°
Drops below altitude 10° 21:00:31 10° 20° (NNE) 2,446 6.6 -14.6°
Sets 21:03:01 0° 16° (NNE) 3,405 7.5 -14.8°
